SEGS ESGG-ZZZZ

Flight info

Callsign SEGS
Flight time N/A
Altitude
Route
Aircraft DA40

Departure

Time 2026-05-05 17:40
Airport Göteborg Landvetter Airport (ESGG)

Arrival

Time N/A
Airport ZZZZ
Time Latitude Longitude Altitude Speed Heading
2026-05-05 17:30 57.66537 12.28842 509 ft 0 kts 296°
2026-05-05 17:33 57.66548 12.28870 509 ft 5 kts 114°
2026-05-05 17:33 57.66517 12.28913 511 ft 6 kts 115°
2026-05-05 17:33 57.66508 12.28955 515 ft 2 kts 107°
2026-05-05 17:34 57.66562 12.28943 513 ft 11 kts 26°
2026-05-05 17:34 57.66610 12.28963 513 ft 9 kts 291°
2026-05-05 17:34 57.66641 12.28845 510 ft 10 kts 297°
2026-05-05 17:34 57.66665 12.28760 509 ft 0 kts 300°
2026-05-05 17:35 57.66690 12.28716 510 ft 4 kts 337°
2026-05-05 17:35 57.66715 12.28717 511 ft 5 kts 17°
2026-05-05 17:35 57.66750 12.28749 512 ft 6 kts 27°
2026-05-05 17:36 57.66784 12.28757 513 ft 4 kts 269°
2026-05-05 17:36 57.66775 12.28731 513 ft 0 kts 238°
2026-05-05 17:36 57.66770 12.28718 514 ft 0 kts 235°
2026-05-05 17:38 57.66767 12.28710 514 ft 6 kts 235°
2026-05-05 17:38 57.66732 12.28614 514 ft 11 kts 236°
2026-05-05 17:39 57.66668 12.28441 518 ft 14 kts 233°
2026-05-05 17:39 57.66593 12.28290 519 ft 30 kts 220°
2026-05-05 17:39 57.66241 12.27933 511 ft 86 kts 204°
2026-05-05 17:39 57.65591 12.27352 580 ft 117 kts 205°
2026-05-05 17:40 57.64802 12.26699 752 ft 125 kts 215°
2026-05-05 17:40 57.64342 12.25338 921 ft 137 kts 263°
2026-05-05 17:40 57.64571 12.23606 1133 ft 142 kts 308°
2026-05-05 17:40 57.65209 12.22068 1146 ft 155 kts 308°
2026-05-05 17:41 57.66010 12.20746 1237 ft 156 kts 334°
2026-05-05 17:41 57.67075 12.20422 1184 ft 156 kts
2026-05-05 17:41 57.67973 12.21037 1112 ft 126 kts 26°
2026-05-05 17:41 57.68744 12.21957 1133 ft 139 kts 32°
2026-05-05 17:42 57.69559 12.23067 1105 ft 145 kts 33°
2026-05-05 17:42 57.70374 12.24135 1227 ft 143 kts 34°
2026-05-05 17:42 57.70932 12.25738 1177 ft 157 kts 73°
2026-05-05 17:42 57.70919 12.27796 1152 ft 162 kts 99°
2026-05-05 17:43 57.70586 12.29787 1232 ft 154 kts 128°
2026-05-05 17:43 57.69763 12.30585 1134 ft 127 kts 176°
2026-05-05 17:43 57.68940 12.30407 891 ft 120 kts 202°
2026-05-05 17:43 57.68116 12.29694 672 ft 136 kts 213°
2026-05-05 17:44 57.67606 12.29190 556 ft 112 kts 210°
2026-05-05 17:44 57.66823 12.28470 572 ft 99 kts 210°
2026-05-05 17:44 57.66155 12.27854 756 ft 109 kts 210°
2026-05-05 17:44 57.65692 12.27494 866 ft 109 kts 206°
2026-05-05 17:45 57.65001 12.26970 1101 ft 107 kts 207°
2026-05-05 17:45 57.64296 12.26302 1144 ft 118 kts 213°
2026-05-05 17:45 57.63891 12.25089 1147 ft 120 kts 277°
2026-05-05 17:45 57.64222 12.23587 1182 ft 128 kts 296°
2026-05-05 17:46 57.64628 12.22072 1266 ft 132 kts 298°
2026-05-05 17:46 57.65242 12.21002 1446 ft 128 kts 343°
2026-05-05 17:46 57.66172 12.20977 1451 ft 139 kts
2026-05-05 17:46 57.67128 12.21431 1433 ft 134 kts 20°
2026-05-05 17:47 57.67923 12.22384 1389 ft 145 kts 36°
2026-05-05 17:47 57.68702 12.23712 1271 ft 157 kts 43°
2026-05-05 17:47 57.69450 12.25234 1209 ft 157 kts 43°
2026-05-05 17:47 57.70184 12.26718 1248 ft 157 kts 42°
2026-05-05 17:48 57.70959 12.28145 1247 ft 156 kts 41°
2026-05-05 17:48 57.71737 12.29574 1297 ft 154 kts 49°
2026-05-05 17:48 57.71807 12.31255 1280 ft 128 kts 118°
2026-05-05 17:48 57.71280 12.32361 1175 ft 100 kts 161°
2026-05-05 17:49 57.70668 12.32232 1136 ft 98 kts 213°
2026-05-05 17:49 57.70035 12.31580 1162 ft 106 kts 212°
2026-05-05 17:49 57.69343 12.30897 1054 ft 114 kts 223°
2026-05-05 17:49 57.68631 12.30190 855 ft 120 kts 212°
2026-05-05 17:50 57.67892 12.29475 637 ft 116 kts 212°
2026-05-05 17:50 57.67235 12.28848 520 ft 85 kts 213°
2026-05-05 17:50 57.66834 12.28476 516 ft 49 kts 201°
2026-05-05 17:50 57.66628 12.28370 518 ft 17 kts 133°
2026-05-05 17:51 57.66658 12.28463 516 ft 18 kts 50°
2026-05-05 17:51 57.66739 12.28664 513 ft 19 kts 53°
2026-05-05 17:51 57.66778 12.28743 513 ft 0 kts 34°
2026-05-05 17:51 57.66783 12.28753 513 ft 7 kts 48°
2026-05-05 17:52 57.66811 12.28805 513 ft 6 kts 31°
2026-05-05 17:52 57.66833 12.28883 513 ft 10 kts 89°
2026-05-05 17:52 57.66800 12.29001 511 ft 11 kts 116°
2026-05-05 17:52 57.66769 12.29115 515 ft 6 kts 114°
2026-05-05 17:53 57.66741 12.29116 517 ft 8 kts 212°
2026-05-05 17:53 57.66687 12.29066 516 ft 10 kts 207°